Showing default

SAOCOM 1-B, 46265

Orbit data source: Space-Track

SAOCOM 1-B, 46265 is a payload satellite owned by CONAE Tabanera (AR) in SSO that was launched on Sun, 30 Aug 2020 UTC via an FALCON 9 launch vehicle from the Air Force Eastern Test Range (AFETR). Payload-class satellites include a variety of spacecraft equipped with specific instruments for various scientific and technological missions. These include communications satellites like Starlink; space stations such as the ISS; scientific satellites like the Hubble; Earth observation satellites from companies like Planet Labs, Umbra, and HawkEye 360; GPS; miniature CubeSats for education and research; and military/defense satellites.

Loading next visibility...
Identifier
46265, 2020-059A
Orbit
SSO
Country
Flag of UnknownUnknown / ARGN
Related business
Manufacturer
INVAP
Mission
Operational Civil Radar Imaging
Bus & Motor
SAOCOM, Unknown motor
Mass
3,050 kg wet, ~2,700 kg dry
Launch date (UTC)
2020-08-30 (5 years ago)
Launch vehicle
FALCON 9
Launch site
Air Force Eastern Test Range (AFETR)
Object type
Payload
Rocket body
Debris
Shape & HBR
Cyl + 2 Pan, Unknown HBR
Radar Cross Section
19.776 m², Large (>1 m²)

Expand to show TLE details & history
Last TLE update: 5 hours ago

TLE from 5 hours ago
0 SAOCOM 1-B
1 46265U 20059A   25261.30230017  .00000450  00000-0  63121-4 0  9997
2 46265  97.8888  86.0551 0001530  88.1426 271.9962 14.82158776273216
Epoch: 2025-09-18T07:15Z
TLE epoch observation values (Epoch: 2025-09-18T07:15:18.734Z)
Latitude
-0.00007°
Longitude
-20.23879°
Altitude
625.506 km
Speed
7.546 km/s
True Right ascension
05h 44m 13s
True Declination
0° 00' 00"
Sunlit
Object was in daylight at epoch
Visualization orbit readout
Latitude
Unknown
Longitude
Unknown
Altitude
Unknown
Speed
Unknown
Apparent Right ascension
Unknown
Apparent Declination
Unknown
Sunlit
N/A
Visualization observer readout
Local Sidereal Time
04:45:42
Azimuth
Unknown
Elevation
Unknown
Doppler factor
Unknown
Orbital elements
Apogee altitude
620.626 km
Perigee altitude
618.485 km
Semi-major axis
6,997.693 km
Eccentricity
0.00015
Inclination
97.8888°
RAAN
86.0551°
Arg. of periapsis
88.1426°
True anomaly
271.97868°
Mean anomaly
271.9962°
Eccentric anomaly
271.98744°
Mean motion
3.70775 °/min
Orbital period
97.09 mins
BSTAR
0.000063121
Loading maneuver chart data...
Computing Atmospheric mass density...
Loading historical data...
Loading historical data...
Loading historical data...
Loading historical data...
Loading historical data...
Loading historical data...
Loading historical data...
Other satellites on launch #59 in the year 2020 (2020-08-30 UTC)

Documentation

Showing up to 5 results
|